Jefferson City, MO

9:38 PM CST on February 22, 2017 (GMT -0600)
Jefferson City Memorial

Weather History for KJEF - February, 2013

Change the Weather History Date:

Tuesday, February 5, 2013

  Actual Average Record
Temperature  
Mean Temperature 40 °F -  
Max Temperature 57 °F 41 °F 69 °F (1986)
Min Temperature 23 °F 16 °F -8 °F (1982)
Degree Days  
Heating Degree Days 25    
Moisture  
Dew Point 27 °F    
Average Humidity 64    
Maximum Humidity 88    
Minimum Humidity 36    
Precipitation  
Precipitation 0.00 in - - ()
Sea Level Pressure  
Sea Level Pressure 29.98 in    
Wind  
Wind Speed 3 mph (WNW)    
Max Wind Speed 14 mph    
Max Gust Speed 22 mph    
Visibility 8 miles    
Events      
Averages and records for this station are not official NWS values.
T = Trace of Precipitation, MM = Missing Value Source: NWS Daily Summary

Daily Weather History Graph

Daily Weather History Graph

Search for Another Location

Airport or City:

Trip Planner

Search our weather history database for the weather conditions in past years. The results will help you decide how hot, cold, wet, or windy it might be!

Date:

Astronomy

Feb. 05, 2013 Rise Set
Actual Time 7:10 AM CST 5:35 PM CST
Civil Twilight 6:42 AM CST 6:03 PM CST
Nautical Twilight 6:11 AM CST 6:34 PM CST
Astronomical Twilight 5:39 AM CST 7:05 PM CST
Moon 2:51 AM CST (2/5) 12:54 PM CST (2/5)
Length of Visible Light 11h 20m
Length of Day
10h 25m
Waning Crescent, 26% of the Moon is Illuminated
Feb 5
Waning Crescent
Feb 10
New
Feb 17
First Quarter
Feb 25
Full
Mar 4
Last Quarter

Hourly Weather History & Observations

Time (CST) Temp. Windchill Dew Point Humidity Pressure Visibility Wind Dir Wind Speed Gust Speed Precip Events Conditions
12:53 AM 26.1 °F - 21.0 °F 81% 29.96 in 6.0 mi Calm Calm - N/A   Haze
1:53 AM 24.1 °F - 19.0 °F 81% 29.96 in 5.0 mi Calm Calm - N/A   Haze
2:53 AM 25.0 °F - 21.0 °F 85% 29.95 in 5.0 mi Calm Calm - N/A   Clear
3:53 AM 23.0 °F - 19.0 °F 85% 29.94 in 5.0 mi Calm Calm - N/A   Clear
4:53 AM 26.1 °F - 23.0 °F 88% 29.94 in 5.0 mi Calm Calm - N/A   Clear
6:53 AM 27.0 °F 23.0 °F 23.0 °F 85% 29.93 in 5.0 mi East 3.5 mph - N/A   Clear
7:53 AM 28.9 °F - 24.1 °F 82% 29.94 in 4.0 mi Calm Calm - N/A   Haze
8:53 AM 32.0 °F - 26.1 °F 79% 29.95 in 7.0 mi Calm Calm - N/A   Partly Cloudy
9:53 AM 37.0 °F 32.4 °F 28.0 °F 70% 29.95 in 9.0 mi SW 5.8 mph - N/A   Partly Cloudy
10:53 AM 45.0 °F 39.7 °F 30.0 °F 56% 29.95 in 10.0 mi West 10.4 mph - N/A   Clear
11:53 AM 51.1 °F - 30.9 °F 46% 29.94 in 10.0 mi WNW 13.8 mph - N/A   Clear
12:53 PM 54.0 °F - 30.0 °F 40% 29.92 in 10.0 mi West 13.8 mph - N/A   Clear
1:53 PM 55.9 °F - 30.9 °F 39% 29.92 in 10.0 mi West 10.4 mph - N/A   Clear
2:53 PM 57.9 °F - 30.9 °F 36% 29.93 in 10.0 mi NW 11.5 mph - N/A   Clear
3:53 PM 55.9 °F - 30.0 °F 37% 29.96 in 10.0 mi NW 13.8 mph 21.9 mph N/A   Clear
4:53 PM 54.0 °F - 30.0 °F 40% 29.97 in 10.0 mi WNW 11.5 mph - N/A   Clear
5:53 PM 50.0 °F - 30.0 °F 46% 29.99 in 10.0 mi WNW 5.8 mph - N/A   Clear
6:53 PM 45.0 °F - 30.0 °F 56% 30.01 in 10.0 mi Calm Calm - N/A   Clear
7:53 PM 39.9 °F - 28.9 °F 65% 30.04 in 10.0 mi Calm Calm - N/A   Clear
8:53 PM 42.1 °F - 28.0 °F 58% 30.07 in 10.0 mi Calm Calm - N/A   Clear
9:53 PM 37.9 °F - 27.0 °F 65% 30.10 in 10.0 mi Calm Calm - N/A   Clear
10:53 PM 37.0 °F - 27.0 °F 67% 30.11 in 10.0 mi Calm Calm - N/A   Clear
11:53 PM 32.0 °F - 26.1 °F 79% 30.12 in 10.0 mi Calm Calm - N/A   Clear